User: anonymous   Login
Location: Unspecified
(0.0000°N, 0.0000°E)
Time: 13:07:19
(UTC+01:00)
Language:

Centaur AC-64 - Orbit

View from above orbital plane
View from above orbital plane
View from above satellite
View from above satellite

Ground track
Ground track

The orbit data is extracted from the following two-line orbital elements,

1 15874U 85055B   16041.38561937 +.00001500 +00000-0 +71849-3 0  9990
2 15874 023.2904 014.3818 6577110 065.3852 347.8202 03.17509198314757
Epoch (UTC): 10 February 2016 09:15:17
Eccentricity: 0.6577110
inclination: 23.2904°
perigee height: 315 km
apogee height: 26036 km
right ascension of ascending node: 14.3818°
argument of perigee: 65.3852°
revolutions per day: 3.17509198
mean anomaly at epoch: 347.8202°
orbit number at epoch: 31475

The dashed part of the orbit path shows where the satellite is in the earth's shadow,  

DLR